Location: Dob?e?
(49.9411°N, 15.1496°E)
Time: 19:11:22
(UTC+00:00)

NOAA 18 - Pass Details

Date: 30 October 2021
Orbit: 840 x 861 km, 99.0° (Epoch: 01 December)

Event Time Altitude Azimuth Distance (km) Brightness Sun altitude
Exits shadow 19:32:16 14° 359° (N) 2,255 7.6 -37.3°
Drops below altitude 10° 19:32:59 10° 356° (N) 2,511 7.9 -37.4°
Sets 19:35:29 0° 350° (N) 3,452 8.8 -37.8°
